sat.trackr.live / text

‹ back to catalog

STARLINK-37289

NORAD 68545 · 2026-070D

PAYLOAD ACTIVE UNKNOWN

§ Identity

Operator
Country
US
Launch date
2026-04-02
Launch site
AFETR
Launch vehicle
Mass (kg)
RCS (m²)

Purposes: comms

External: N2YO · Heavens-Above · Gunter

§ Orbital elements

Epoch: 2026-09-19T06:14:14.908128Z

Period
93.85 min
Inclination
53.1575°
Eccentricity
0.0001462
Mean motion
15.34432339 rev/d
Perigee alt
461.6 km
Apogee alt
463.6 km
Semi-major
6,840.7 km
B*
8.0558e-4
RAAN
179.7597°
Arg perigee
102.2781°
Mean anomaly
257.8385°
Rev number
2,624

§ Raw data

STARLINK-372891 68545U 26070D   26262.25989477  .00026967  00000+0  80558-3 0  99902 68545  53.1575 179.7597 0001462 102.2781 257.8385 15.34432339 26244

JSON: /api/v1/satellites/68545 · /tle

For live sub-satellite position, see the globe view (requires WebGL).

§ Visibility from observer

Set your observer location to see the next 7 days of passes ≥ 10°. The values pass through the URL so the page stays shareable.

No JS? Fill the form by hand. The geolocation button needs JavaScript.